Regional Weather Roundup
Issued by NWS

Home | Current Version | Previous Version | Text Only | Print | Product List | Glossary Off
Versions: 1 2 3 4 5 6 7 8 9 10 11 12 13 14 15 16 17 18 19 20 21 22 23 24 25 26 27 28 29 30 31 32 33 34 35 36 37 38 39 40 41 42 43 44 45 46 47 48 49 50

000
ASUS43 KDTX 281301
RWRMI
MICHIGAN HOURLY REGIONAL WEATHER ROUNDUP
NATIONAL WEATHER SERVICE DETROIT/PONTIAC MI
900 AM EDT SUN AUG 28 2016

NOTE: "FAIR" INDICATES FEW OR NO CLOUDS BELOW 12,000 FEET WITH NO
SIGNIFICANT WEATHER AND/OR OBSTRUCTION TO VISIBILITY.

MIZ047>049-052>055-059>063-066>070-074>076-081>083-281400-
SOUTHEAST LOWER MICHIGAN

CITY           SKY/WX    TMP DP  RH WIND       PRES   REMARKS
ADRIAN         CLOUDY    70  70 100 W3        30.20R FOG
ALMA           MOSUNNY   73  73  99 W12       30.18R
ANN ARBOR      MOSUNNY   72  72 100 S3        30.19R FOG
CARO           MOSUNNY   75  72  92 W7        30.17R
DETROIT CITY   CLOUDY    72  72 100 SW6       30.18R FOG
DETROIT        FOG       70  70 100 SW5       30.19R VSB 3/4
FLINT          CLOUDY    76  71  85 W6        30.18R
GROSSE ILE     FOG       71  70  98 CALM      30.18R VSB 1
HILLSDALE      MOSUNNY   75  73  91 W3        30.20R
HOWELL         PTSUNNY   74  73  96 W5        30.19R FOG

CITY           SKY/WX    TMP DP  RH WIND       PRES   REMARKS
JACKSON        CLOUDY    73  73 100 W6        30.20R
LAMBERTVILLE   MOSUNNY   74  72  94 CALM      30.19S FOG
LANSING        PTSUNNY   73  70  90 SW3       30.20R
LAPEER         CLOUDY    74  72  93 W5        30.19R
MASON          CLOUDY    72  72 100 W5        30.21R FOG
MONROE         CLOUDY    72  72 100 W6        30.18R FOG
PONTIAC        CLOUDY    74  71  91 W8        30.18R FOG
PORT HURON     CLOUDY    72  72 100 W3        30.17R FOG
TRI CITIES     MOSUNNY   73  71  93 SW5       30.17R
MIDLAND        CLOUDY    72  70  96 SW3       30.16R
TROY           PTSUNNY   74  72  91 SW6       30.19S FOG
SAGINAW HB     PTSUNNY   72  70  94 CALM      30.17R
$$
MIZ043>046-050>051-056>058-064>065-071>073-077>080-281400-
SOUTHWEST LOWER MICHIGAN

CITY           SKY/WX    TMP DP  RH WIND       PRES   REMARKS
BATTLE CREEK   CLOUDY    71  71 100 SW5       30.21R FOG
BENTON HARBOR  SUNNY     75  71  87 NE3       30.19R
BIG RAPIDS     CLOUDY    68  65  91 NW3       30.18R
COLDWATER      CLOUDY    74  74  98 SW3       30.20R
FREMONT        PTSUNNY   68  67  97 NW3       30.19R
HOLLAND        SUNNY     75  69  81 CALM      30.20R
GRAND RAPIDS   PTSUNNY   73  69  87 W7        30.20R FOG
IONIA          PTSUNNY   72  70  93 SW5       30.19R
KALAMAZOO      CLOUDY    73  70  90 CALM      30.20R FOG
LUDINGTON      CLOUDY    67  66  96 N3        30.18R
MARSHALL       CLOUDY    73  73 100 W3        30.20R
MOUNT PLEASANT CLOUDY    71  69  93 W5        30.17R
MUSKEGON       MOSUNNY   73  67  81 N6        30.19R
SOUTH HAVEN    PTSUNNY   75  73  94 N3        30.20R
$$
MIZ016>042-281400-
NORTHERN LOWER MICHIGAN

CITY           SKY/WX    TMP DP  RH WIND       PRES   REMARKS
ALPENA         CLOUDY    70  64  81 W6        30.14R
BEAVER ISLAND  PTSUNNY   69  64  86 W9        30.15R
BELLAIRE       CLOUDY    68  64  88 CALM      30.17R
CADILLAC       CLOUDY    65  63  91 CALM      30.18R
CHARLEVOIX     CLOUDY    68  63  84 W7        30.18R
FRANKFORT      MOSUNNY   70  63  78 CALM      30.18R
GAYLORD        CLOUDY    66  62  87 W6        30.17R
GRAYLING       CLOUDY    67  65  91 NW7       30.18R
HARBOR SPRINGS CLOUDY    66  63  88 W6        30.15R
HOUGHTON LAKE  CLOUDY    67  64  90 NW12      30.18R
MANISTEE       CLOUDY    68  64  87 W10       30.18R
OSCODA         CLOUDY    71  70  96 SW5       30.13S
PELLSTON       CLOUDY    66  62  87 W5        30.15R
ROGERS CITY    CLOUDY    67  64  90 NW5       30.14R
TRAVERSE CITY  CLOUDY    69  63  81 W7        30.16R
$$
MIZ007>008-015-281400-
EASTERN UPPER MICHIGAN

CITY           SKY/WX    TMP DP  RH WIND       PRES   REMARKS
KINROSS        CLOUDY    63  62  97 W6        30.13R
MACKINAC ISLAN MOSUNNY   66  66 100 W9        30.13R
NEWBERRY       PTSUNNY   63  62  97 W9        30.13R
S. S. MARIE    CLOUDY    65  63  93 W9        30.11R
$$
MIZ004>006-011>014-085-281400-
CENTRAL UPPER MICHIGAN

CITY           SKY/WX    TMP DP  RH WIND       PRES   REMARKS
MANISTIQUE     SUNNY     65  63  92 W6        30.14R
ESCANABA       CLOUDY    64  62  93 W5        30.16R
MENOMINEE        N/A    N/A N/A N/A MISG        N/A
SAWYER-GWINN   SUNNY     63  59  88 NW8       30.17R
$$
MIZ001>003-009>011-084-281400-
WESTERN UPPER MICHIGAN

CITY           SKY/WX    TMP DP  RH WIND       PRES   REMARKS
IRON MOUNTAIN  SUNNY     65  59  81 NW6       30.16R
HOUGHTON       PTSUNNY   63  58  83 NW12      30.15S
IRONWOOD       CLOUDY    61  59  93 W3        30.18S
$$

ABBREVIATIONS USED IN REMARKS
   TC - TEMPERATURE IN CELSIUS
  WCI - WIND CHILL INDEX
   HX - HEAT INDEX
  VSB - VISIBILITY





USA.gov is the U.S. government's official web portal to all federal, state and local government web resources and services.